Welcome to the New NWS' Forecast!
Most changes are behind the scenes, but click here for differences you might notice.

Regional Weather Roundup (RWR)

Issued by Mobile/Pensacola (MOB)

                            
799 
ASUS44 KMOB 211613
RWRMOB
REGIONAL WEATHER ROUNDUP
NATIONAL WEATHER SERVICE MOBILE AL
1000 AM CST SUN JAN 21 2018

NOTE: "FAIR" INDICATES FEW OR NO CLOUDS BELOW 12,000 FEET WITH NO
      SIGNIFICANT WEATHER AND/OR OBSTRUCTIONS TO VISIBILITY.

  * THESE STATIONS ARE PART OF THE UNIVERSITY OF SOUTH ALABAMA 
    MESONET AND ARE NOT UNDER NWS OR FAA QUALITY CONTROL. 

ALZ061>064-211700-
COASTAL ALABAMA
  
CITY           SKY/WX    TMP DP  RH WIND       PRES   REMARKS
MOBILE REG APT FAIR      65  53  65 SE13      30.24S                  
BROOKLEY FIELD FAIR      59  51  75 E6        30.25S                  
USA CAMPUS*    NOT AVBL                                               
DOG RIVER*     NOT AVBL                                               

  
CITY           SKY/WX    TMP DP  RH WIND       PRES   REMARKS
GULF SHORES    FAIR      67  52  58 E20G26    30.24S                  

$$

ALZ051>060-211700-
INTERIOR SOUTHWEST AND SOUTH CENTRAL ALABAMA
  
CITY           SKY/WX    TMP DP  RH WIND       PRES   REMARKS
GREENVILLE     FAIR      61  40  45 S6        30.27R                  
EVERGREEN      FAIR      60  42  51 S7        30.27S                  
ATMORE*          N/A    N/A N/A N/A E8          N/A                   
ANDALUSIA/OPP  FAIR      64  41  42 E6        30.28R                  
ANDALUSIA*       N/A     61  43  51 E6        30.27R                  
FLORALA APT    FAIR      62  41  46 E8        30.30R                  
FLORALA*         N/A     61  43  51 NE6       31.04S                  

$$

FLZ001>006-211700-
WESTERN FLORIDA PANHANDLE
  
CITY           SKY/WX    TMP DP  RH WIND       PRES   REMARKS
PENSACOLA      FAIR      63  47  55 E8        30.26R                  
NAS PENSACOLA  FAIR      58  50  75 E12       30.24S                  
MILTON         FAIR      62  41  46 SE7       30.27R                  
WHTNG S FIELD  FAIR      65  42  43 SE6       30.27R                  

  
CITY           SKY/WX    TMP DP  RH WIND       PRES   REMARKS
JAY*             N/A     63  43  48 SE9       30.27S                  
DUKE FIELD     FAIR      64  39  40 SE8       30.26R                  
CRESTVIEW      FAIR      64  40  41 SE9       30.29R                  
VALPARAISO     SUNNY     60  37  43 SE10      30.26S                  
DESTIN         FAIR      63  38  39 E12       30.27R                  

$$

MSZ076-079-211700-
INTERIOR SOUTHEAST MISSISSIPPI
  
CITY           SKY/WX    TMP DP  RH WIND       PRES   REMARKS
LEAKESVILLE*     N/A     63  54  72 CALM      30.24R                  
AGRICOLA*        N/A     64  55  72 SE3       30.22S                  

$$

MARINE OBSERVATIONS
  
STATION/POSITION TIME  TEMP    WIND        PRES    WAVE
                       AIR SEA DIR/SP/G            HT/PER
                 (UTC) (F)     (DEG/KT/KT) (MB)    (FT/S)
PASCAGOULA       1548   64     140/  6/ 13 1023.1R
PETIT BOIS ISLND 1548   53      70/  8/ 10 1024.1R
GRAND BAY        1445   56      90/  9     1024.0R
KATRINA CUT      1530   47      80/ 13     1023.4S
CEDAR POINT      1530   50      60/  7     1023.4R
E DAUPHIN ISLAND 1600   50      50/  4/  4 1023.3R
MIDDLE BAY LIGHT 1530   58      20/  3     1023.7R
USCG MOBILE BAY  1548   58 49  110/  5/  6 1024.0S
STATE DOCKS      1536   66 49              1023.9R
MEAHER PARK      1530   61     130/  5     1023.7F
WEEKS BAY        1445   56                 1023.0S
FORT MORGAN      1548   62     120/ 14/ 19   N/A
12 S ORANGE BCH  NOT AVBL
PENSACOLA BAY    1536   59 48   70/  4/  6 1024.8R
64 S DAUPHIN ISL 1550   66 65  110/ 10/ 12 1023.1R   4/ 6
67 S FORT MORGAN 1530   67                 1022.7S

$$

SELECTED LOCATIONS ACROSS THE REGION
  
CITY           SKY/WX    TMP DP  RH WIND       PRES   REMARKS
NEW ORLEANS    FAIR      68  60  75 SE13      30.17S                  
GULFPORT       FAIR      66  56  70 SE14      30.21R                  
PASCAGOULA AP  FAIR      67  53  61 SE13G23   30.23R                  
PASCAGOULA*      N/A     64  57  77 NE5         N/A                   
HATTIESBURG    FAIR      62  54  74 SE6       30.22S                  
LAUREL         FAIR      62  54  74 SE7       30.22S                  
MERIDIAN       FAIR      64  51  62 S12       30.23S                  
JACKSON        FAIR      63  53  70 S12       30.16F                  
MONTGOMERY     FAIR      56  40  55 E3        30.30R                  
TROY           FAIR      62  42  47 VRB7      30.29R                  
ASHFORD*         N/A     61  43  51 E6        30.27R                  
DOTHAN         FAIR      61  41  47 E7        30.32S                  
PANAMA CITY    FAIR      62  33  33 NE9       30.27R                  

$$